Погода в Хагфорсе

Швеция     60°01′54″N   13°42′06″E
темп.,
°C
ветер,
м/с
пор.,
м/с
влажн.,
%
обл.,
%
осадки,
мм/ч
давл.,
гПа
погр.,
м
14 мая, пт
пт1423:00+12вюв22675 0.0 100612
02:00+11св1170100 0.0 100710
05:00+11ссв1183100 0.3 100614
08:00+15всв386975 0.4 1006461
11:00+17всв5755100 0.1 10061184
14:00+18всв4657100 0.3 10041316
17:00+16в5874100 1.8 10041253
20:00+12в25825 2.1 1005511
15 мая, сб
сб1523:00+10всв389278 0.4 1006301
02:00+9всв3792100 0.5 1006438
05:00+8св2695100 0.9 1005384
08:00+8св4893100 4.2 1004530
11:00+9всв2592100 0.4 1003644
14:00+9вюв2490100 0.6 1003567
17:00+11юв248097 0.3 1002714
20:00+9вюв1592100 0.6 1002259
16 мая, вс
вс1623:00+8ю269761 0.9 1003323
02:00+8ююв2798100 0.9 1004479
05:00+7ююв2698100 0.0 1005382
08:00+8ю358879 0.0 1006489
11:00+14ююв245896 0.1 10051325
14:00+14вюв356171 0.5 10041161
17:00+12ююв3779100 1.3 1004415
20:00+11юв2786100 3.5 1003278
17 мая, пн
пн1723:00+9вюв31088100 0.6 1003642
02:00+8вюв4997100 2.4 1003769
05:00+8юв2596100 0.1 1003386
08:00+9юв2390100 0.1 1004435
11:00+11юв2375100 0.1 1004817
14:00+14юв2356100 0.6 10021448
17:00+13юв237462 1.2 1002426
20:00+12ю23865 2.9 100296
18 мая, вт
вт1823:00+7ю11935 0.6 100210
02:00+6юв11955 0.6 100310
05:00+6юв11966 0.0 100310
08:00+11ююз12816 0.0 1003336
11:00+14ю226590 0.6 10021239
14:00+14ююз2370100 2.4 1002879
17:00+15ю346649 1.8 10011184
20:00+12ю257984 2.2 1001252